Stations météo

réclame
Mon MeteoGroup
Santander/Parayas, Espagne (8021): Température de l'air & dewpoint: 16.10.2018 16:00:00 - 22.10.2018 16:00:00 (CEST)Santander/Parayas, Espagne (8021): Vitesse du vent: 16.10.2018 16:00:00 - 22.10.2018 16:00:00 (CEST)Santander/Parayas, Espagne (8021): Direction du vent: 16.10.2018 16:00:00 - 22.10.2018 16:00:00 (CEST)Santander/Parayas, Espagne (8021): reduced air pressure: 16.10.2018 16:00:00 - 22.10.2018 16:00:00 (CEST)Santander/Parayas, Espagne (8021): visibility: 16.10.2018 16:00:00 - 22.10.2018 16:00:00 (CEST)
Date & Time tt [°C] td [°C] ff [km/h] ff [knt] dd ppp [hPa] vv [km]
22.10.2018 16:00:00 18,6 13,4 13 7 NE 1028,8 -
22.10.2018 15:00:00 19,5 14,0 16 9 ENE 1028,8 -
22.10.2018 14:00:00 19,4 14,4 13 7 NE 1029,1 7
22.10.2018 13:00:00 18,6 15,3 11 6 NW 1029,2 -
22.10.2018 12:00:00 18,8 16,1 13 7 WNW 1028,9 -
22.10.2018 11:00:00 16,9 16,4 9 5 W 1028,5 -
22.10.2018 10:00:00 15,9 15,9 8 4 SW 1027,9 -
22.10.2018 09:00:00 14,7 14,7 4 2 W 1027,2 -
22.10.2018 08:00:00 14,6 14,6 9 5 SW 1026,8 3,3
22.10.2018 07:00:00 14,8 14,8 8 4 W 1026,5 -
22.10.2018 06:00:00 15,6 15,6 4 2 WSW 1025,9 -
22.10.2018 05:00:00 16,0 16,0 8 4 WSW 1025,7 -
22.10.2018 04:00:00 16,1 16,1 8 4 W 1025,5 -
22.10.2018 03:00:00 16,2 16,2 9 5 SW 1025,2 -
22.10.2018 02:00:00 16,2 16,2 8 4 SW 1025,2 -
22.10.2018 01:00:00 16,1 16,1 9 5 SSW 1025,0 -
22.10.2018 00:00:00 16,1 16,1 9 5 SSW 1024,8 -
21.10.2018 23:00:00 16,0 16,0 5 3 N 1024,5 1,8
21.10.2018 22:00:00 16,3 16,3 8 4 N 1024,0 -
21.10.2018 21:00:00 16,6 16,6 0 0 N 1023,8 -
21.10.2018 20:00:00 16,4 16,4 4 2 SW 1023,4 2,5
21.10.2018 19:00:00 16,6 16,6 9 5 ENE 1022,8 -
21.10.2018 18:00:00 17,0 17,0 15 8 NE 1022,7 -
21.10.2018 17:00:00 17,7 16,9 11 6 E 1022,8 0,8
21.10.2018 16:00:00 19,4 16,9 15 8 ENE 1022,5 -
21.10.2018 15:00:00 19,9 16,8 11 6 ENE 1022,6 -
21.10.2018 14:00:00 19,1 17,0 13 7 NE 1023,0 7
21.10.2018 13:00:00 18,3 16,6 15 8 ENE 1023,5 -
21.10.2018 12:00:00 18,1 17,1 2 1 ENE 1023,7 -
21.10.2018 11:00:00 16,3 16,3 2 1 E 1023,9 5
21.10.2018 10:00:00 13,7 13,7 4 2 SSW 1023,8 -
21.10.2018 09:00:00 10,7 10,7 4 2 SE 1023,2 -
21.10.2018 08:00:00 11,1 11,1 0 0 N 1022,9 2,5
21.10.2018 07:00:00 11,6 11,6 4 2 SSW 1023,3 -
21.10.2018 06:00:00 12,2 12,2 0 0 N 1023,5 -
21.10.2018 05:00:00 12,2 12,2 0 0 N 1023,5 -
21.10.2018 04:00:00 12,8 12,8 2 1 WSW 1023,8 -
21.10.2018 03:00:00 13,5 13,5 4 2 SW 1024,0 -
21.10.2018 02:00:00 15,3 15,3 0 0 N 1024,5 -
21.10.2018 01:00:00 16,2 16,0 5 3 S 1024,6 -
21.10.2018 00:00:00 16,8 16,6 4 2 E 1025,0 -
20.10.2018 23:00:00 16,8 16,8 9 5 E 1025,1 3,0
20.10.2018 22:00:00 16,3 16,3 13 7 ESE 1024,7 -
20.10.2018 21:00:00 16,8 16,2 13 7 ENE 1024,3 -
20.10.2018 20:00:00 17,0 16,4 13 7 ENE 1023,6 5
20.10.2018 19:00:00 17,6 16,6 11 6 E 1023,5 -
20.10.2018 18:00:00 18,3 16,5 11 6 NE 1023,8 -
20.10.2018 17:00:00 18,5 16,1 13 7 ENE 1024,0 8
20.10.2018 16:00:00 19,0 15,9 11 6 ENE 1024,3 -
20.10.2018 15:00:00 19,8 15,4 5 3 NE 1024,6 -
20.10.2018 14:00:00 19,3 16,1 5 3 ENE 1025,0 6
20.10.2018 13:00:00 20,0 16,2 5 3 ESE 1025,6 -
20.10.2018 12:00:00 18,2 16,4 5 3 W 1025,6 -
20.10.2018 11:00:00 16,6 16,6 4 2 WNW 1025,5 6
20.10.2018 10:00:00 15,0 15,0 4 2 NNW 1025,0 -
20.10.2018 09:00:00 13,5 13,5 4 2 W 1023,9 -
20.10.2018 08:00:00 13,4 13,4 4 2 W 1023,3 4,0
20.10.2018 07:00:00 14,0 14,0 4 2 SW 1023,4 -
20.10.2018 06:00:00 14,1 14,1 8 4 SW 1023,1 -
20.10.2018 05:00:00 15,2 15,2 8 4 SSW 1022,9 -
20.10.2018 04:00:00 15,7 15,7 8 4 SSW 1023,2 -
20.10.2018 03:00:00 14,9 14,9 5 3 W 1023,0 -
20.10.2018 02:00:00 15,4 15,4 11 6 SSW 1022,9 -
20.10.2018 01:00:00 16,0 16,0 5 3 W 1022,9 -
20.10.2018 00:00:00 16,9 16,6 5 3 W 1023,0 -
19.10.2018 23:00:00 17,1 16,8 5 3 W 1023,3 5
19.10.2018 22:00:00 17,4 16,8 9 5 W 1022,7 -
19.10.2018 21:00:00 17,4 16,4 8 4 W 1022,2 -
19.10.2018 20:00:00 17,7 16,4 8 4 W 1021,4 -
19.10.2018 19:00:00 18,4 16,0 8 4 N 1020,7 -
19.10.2018 18:00:00 19,9 16,2 8 4 WNW 1020,3 -
19.10.2018 17:00:00 19,7 16,7 11 6 N 1020,2 9
19.10.2018 16:00:00 20,1 17,3 11 6 NW 1020,0 -
19.10.2018 15:00:00 19,0 17,8 15 8 WNW 1020,2 -
19.10.2018 14:00:00 18,9 17,9 13 7 W 1020,5 -
19.10.2018 13:00:00 19,0 17,8 13 7 W 1020,7 -
19.10.2018 12:00:00 18,6 17,1 15 8 W 1020,5 -
19.10.2018 11:00:00 18,2 17,4 11 6 W 1019,9 6
19.10.2018 10:00:00 17,3 17,0 8 4 W 1019,3 -
19.10.2018 09:00:00 17,1 16,9 13 7 W 1018,5 -
19.10.2018 08:00:00 17,1 16,8 11 6 SW 1018,2 8
19.10.2018 07:00:00 16,9 16,7 13 7 WSW 1018,1 -
19.10.2018 06:00:00 16,9 16,9 11 6 W 1018,4 -
19.10.2018 05:00:00 16,8 16,8 11 6 W 1018,5 -
19.10.2018 04:00:00 16,9 16,9 9 5 WSW 1018,5 -
19.10.2018 03:00:00 16,7 16,6 9 5 WSW 1018,3 -
19.10.2018 02:00:00 16,8 16,5 8 4 WSW 1018,1 -
19.10.2018 01:00:00 16,6 15,8 9 5 WSW 1018,1 -
19.10.2018 00:00:00 16,7 15,6 8 4 W 1018,3 -
18.10.2018 23:00:00 16,7 16,2 5 3 WNW 1018,2 8
18.10.2018 22:00:00 16,5 16,3 9 5 SW 1017,6 -
18.10.2018 21:00:00 16,6 16,6 9 5 SW 1017,7 -
18.10.2018 20:00:00 17,1 17,1 9 5 WSW 1017,3 6
18.10.2018 19:00:00 17,2 17,2 9 5 W 1016,8 -
18.10.2018 18:00:00 17,5 17,3 5 3 W 1016,8 -
18.10.2018 17:00:00 17,8 17,2 8 4 W 1016,6 8
18.10.2018 16:00:00 17,7 17,1 9 5 WNW 1016,4 -
18.10.2018 15:00:00 18,2 16,6 9 5 WNW 1016,7 -
18.10.2018 14:00:00 18,5 16,5 8 4 NW 1017,1 8
18.10.2018 13:00:00 19,3 16,7 9 5 NNW 1017,1 -
18.10.2018 12:00:00 20,1 17,5 5 3 E 1017,2 -
18.10.2018 11:00:00 17,6 17,6 5 3 W 1017,1 6
18.10.2018 10:00:00 16,7 16,7 5 3 SSW 1016,8 -
18.10.2018 09:00:00 16,2 16,2 4 2 W 1016,3 -
18.10.2018 08:00:00 16,1 16,1 0 0 N 1015,7 5
18.10.2018 07:00:00 16,1 16,1 2 1 SW 1015,4 -
18.10.2018 06:00:00 16,1 16,1 0 0 N 1015,1 -
18.10.2018 05:00:00 16,3 16,3 2 1 S 1015,1 -
18.10.2018 04:00:00 16,6 16,6 0 0 N 1015,2 -
18.10.2018 03:00:00 16,7 16,7 4 2 ENE 1015,5 -
18.10.2018 02:00:00 16,7 16,7 8 4 ENE 1015,5 -
18.10.2018 01:00:00 16,9 16,6 8 4 ENE 1015,7 -
18.10.2018 00:00:00 17,1 16,5 5 3 E 1015,8 -
17.10.2018 23:00:00 16,9 16,4 8 4 ENE 1015,7 6
17.10.2018 22:00:00 17,0 16,2 9 5 ENE 1015,5 -
17.10.2018 21:00:00 17,2 16,1 11 6 NE 1015,5 -
17.10.2018 20:00:00 17,4 15,7 9 5 ENE 1015,0 9
17.10.2018 19:00:00 17,7 15,7 13 7 ENE 1014,2 -
17.10.2018 18:00:00 18,6 15,4 18 10 ENE 1013,4 -
17.10.2018 17:00:00 18,8 15,5 22 12 NE 1013,7 -
17.10.2018 16:00:00 18,9 15,2 24 13 NE 1014,1 -
17.10.2018 15:00:00 18,9 15,2 21 11 NE 1014,9 -
17.10.2018 14:00:00 18,8 14,9 13 7 NE 1016,0 9
17.10.2018 13:00:00 17,7 14,0 8 4 NE 1017,0 -
17.10.2018 12:00:00 17,1 13,8 8 4 E 1017,4 -
17.10.2018 11:00:00 15,1 15,1 4 2 WSW 1017,9 -
17.10.2018 10:00:00 12,8 12,8 4 2 ESE 1018,0 -
17.10.2018 09:00:00 9,8 9,8 4 2 SE 1017,9 -
17.10.2018 08:00:00 8,9 8,9 2 1 SE 1018,2 4,5
17.10.2018 07:00:00 10,1 10,1 0 0 N 1018,4 -
17.10.2018 06:00:00 10,1 10,1 4 2 SW 1018,4 -
17.10.2018 05:00:00 10,8 10,8 0 0 N 1018,5 -
17.10.2018 04:00:00 10,9 10,9 5 3 E 1018,7 -
17.10.2018 03:00:00 11,6 11,6 0 0 N 1019,2 -
17.10.2018 02:00:00 10,8 10,8 0 0 N 1019,6 -
17.10.2018 01:00:00 12,3 12,3 0 0 N 1020,0 -
17.10.2018 00:00:00 12,6 12,6 4 2 S 1020,0 -
16.10.2018 23:00:00 13,1 12,6 5 3 SE 1020,1 12
16.10.2018 22:00:00 15,5 14,7 8 4 E 1019,8 -
16.10.2018 21:00:00 16,3 14,9 8 4 E 1019,7 -
16.10.2018 20:00:00 16,9 15,1 8 4 ENE 1019,3 30
16.10.2018 19:00:00 17,6 15,4 13 7 ENE 1018,8 -
16.10.2018 18:00:00 18,4 16,0 15 8 ENE 1018,6 -
16.10.2018 17:00:00 19,4 15,1 15 8 NE 1018,4 35
16.10.2018 16:00:00 19,9 15,4 13 7 NE 1018,0 -

tt = Température de l'air
td = dewpoint
ff = Vitesse du vent
dd = Direction du vent
ppp = reduced air pressure
vv = visibility

stations d'obs. à proximité